Theta_e
329 328 327 327 327 328 328 328 328 328 328 327 326 326 326 326 326 325 324 323 321 320 318 317 315 311 309 307 306 307 308 307 306 306 307 306 304 303 302 302 302 303 304 305 305 304 304 304 304 304 304 306 308 310 311 312 313 313 313 313 313 313 313 313 313 313 313 313 313 314 314 314 314 314
328 327 328 328 328 328 327 327 328 328 328 327 326 326 326 327 326 325 325 324 323 321 318 318 317 312 308 307 306 308 308 307 306 306 307 306 304 303 302 302 303 303 305 305 305 305 304 304 304 305 307 308 310 311 312 312 312 313 313 313 313 313 313 313 313 313 313 314 314 314 314 314 314 314
328 327 328 328 329 328 327 327 328 328 328 327 326 325 326 327 326 325 325 324 322 321 319 318 316 312 309 307 307 308 308 307 307 307 307 306 304 303 302 302 303 303 305 306 306 306 305 305 306 308 310 311 312 312 312 312 313 312 313 312 312 312 313 313 313 313 313 313 313 313 313 313 314 314
328 328 327 328 328 328 327 327 328 328 327 326 326 326 326 326 325 325 325 324 322 320 319 318 315 311 309 308 307 308 308 307 307 307 307 307 305 304 303 303 303 303 304 306 307 307 306 306 307 310 311 312 312 312 312 312 312 312 312 312 312 312 312 312 312 312 312 312 312 313 313 313 313 313
329 328 327 328 329 327 326 327 327 328 327 326 326 326 326 326 325 325 324 323 322 319 318 318 315 311 311 310 308 308 308 308 307 307 308 307 306 305 304 304 304 304 304 305 306 307 307 307 307 309 311 312 312 312 312 312 312 312 312 312 312 312 312 312 312 312 312 312 312 312 313 313 313 313
328 328 328 328 328 326 325 326 327 327 327 326 326 326 326 326 325 325 324 323 322 319 316 316 314 311 312 311 308 308 308 308 308 308 308 308 308 307 306 306 306 305 305 304 305 306 307 308 307 308 309 311 312 312 312 312 312 312 312 312 312 312 312 312 311 312 312 312 312 312 312 312 312 312
327 328 328 328 327 326 326 326 326 327 327 327 326 326 326 326 325 325 324 322 322 320 317 314 312 311 311 310 308 308 309 308 308 308 308 308 308 308 308 307 307 307 306 306 305 305 306 307 308 308 308 310 311 312 312 312 312 312 312 312 312 312 312 312 312 312 312 312 312 312 312 312 312 312
327 327 328 328 327 327 326 325 326 326 326 326 326 326 326 326 325 325 324 323 322 321 319 314 311 310 310 309 308 308 308 309 308 308 308 308 308 308 308 308 308 308 308 307 307 306 306 306 307 307 308 309 310 311 311 312 312 312 312 312 312 312 312 312 312 312 312 312 312 312 312 312 312 312
327 327 328 327 327 326 326 325 326 326 326 326 325 326 326 326 326 325 324 323 322 321 320 316 312 311 310 308 308 308 308 309 309 308 308 308 308 308 309 309 309 309 309 309 308 308 308 308 307 308 308 308 309 310 311 311 312 312 312 312 312 312 312 312 312 312 312 312 311 311 312 312 311 312
326 327 327 327 327 326 325 325 326 326 326 326 325 325 325 326 326 325 325 324 322 321 320 318 314 313 312 310 308 308 309 309 309 309 309 308 308 308 308 309 310 310 310 310 310 310 309 309 309 309 309 309 309 310 310 311 311 311 311 311 311 311 311 311 311 311 311 311 312 312 312 312 312 312
326 327 327 326 326 326 325 325 325 326 326 326 326 324 325 326 326 325 325 324 323 322 321 319 315 313 313 312 311 309 309 309 310 310 309 309 308 308 308 309 310 311 312 312 312 311 311 311 311 311 311 311 311 311 311 311 311 311 311 311 311 311 311 312 312 312 312 312 312 312 313 313 313 313
326 327 326 325 325 325 324 324 325 326 326 327 327 324 323 325 325 325 325 325 324 322 322 321 317 314 313 313 315 314 311 310 310 310 310 310 309 309 309 310 311 311 312 312 312 312 312 312 312 312 312 312 312 312 312 312 312 312 312 312 312 312 313 313 313 313 313 313 313 314 314 314 314 314
326 326 326 325 325 324 323 324 324 325 326 327 327 325 324 324 325 325 326 325 322 322 323 322 318 315 313 315 318 319 315 311 310 310 310 310 310 310 310 311 311 312 312 312 312 311 312 312 312 312 312 313 312 312 312 312 312 312 313 313 314 314 314 314 314 314 315 315 315 315 315 315 315 315
325 326 326 326 325 324 323 323 324 325 325 326 326 326 325 324 324 325 326 324 322 321 322 321 317 315 314 316 318 318 315 312 311 311 310 310 311 311 310 311 312 312 312 312 312 311 312 312 312 313 313 313 313 313 313 313 313 314 314 314 315 315 315 315 315 315 315 315 315 315 315 315 315 316
324 325 325 326 325 323 323 323 324 325 325 325 325 325 325 325 325 325 325 324 322 322 322 320 318 317 316 317 318 317 314 312 312 311 310 310 311 311 311 311 311 312 311 311 312 312 312 313 313 313 313 314 314 314 314 314 315 315 315 315 315 316 316 316 315 315 315 315 314 314 314 314 314 314
324 324 325 324 324 324 323 323 323 324 324 324 324 324 324 324 324 325 325 323 323 323 323 321 320 320 319 319 319 316 313 313 312 311 311 311 311 311 311 310 311 311 312 312 312 313 313 313 313 314 314 315 316 316 316 316 316 316 316 316 316 315 315 315 315 314 313 313 312 311 311 310 311 311
324 324 324 324 324 324 324 324 324 323 323 323 323 323 323 323 324 324 324 324 324 323 323 322 322 322 322 322 320 316 314 313 313 312 312 312 312 312 311 311 311 311 311 312 313 313 314 314 315 316 316 316 316 316 316 316 316 316 315 315 315 314 313 312 311 310 309 308 307 307 307 307 308 309
324 324 324 324 323 323 323 323 323 323 322 322 322 322 322 323 323 323 324 324 324 323 322 322 322 323 323 322 321 318 315 314 313 312 312 312 312 312 311 311 311 311 312 313 314 316 316 316 316 316 316 316 316 316 316 315 314 313 312 311 310 309 308 307 307 306 305 305 305 304 305 305 306 307
324 324 323 324 324 324 324 323 323 322 322 322 323 323 323 323 323 323 324 323 323 322 321 321 321 322 322 321 319 318 315 314 313 312 312 311 312 312 313 313 313 314 315 316 316 316 316 316 316 316 316 315 314 313 312 311 310 309 307 306 305 304 304 303 303 303 302 302 302 302 302 302 302 303
324 323 323 323 323 323 323 323 323 323 323 323 324 324 323 323 323 322 323 323 321 320 320 320 320 320 320 318 317 315 314 313 313 312 312 313 313 315 315 315 315 316 315 315 315 315 315 315 314 313 312 310 309 308 307 306 305 303 302 301 301 300 300 299 299 299 298 298 298 298 298 298 298 299
323 323 322 322 321 321 320 321 322 323 323 324 323 322 321 320 320 320 320 320 320 320 319 318 317 316 316 315 314 314 314 314 314 315 315 315 316 316 315 315 315 314 313 313 313 312 311 310 308 307 306 305 304 303 302 301 300 299 298 298 297 297 297 297 297 297 297 297 297 297 297 298 298 299
323 323 322 321 320 319 319 320 320 321 322 323 322 320 319 319 318 317 317 317 317 317 315 314 314 314 315 315 315 315 316 316 316 316 316 316 315 314 313 312 311 310 309 308 307 307 306 305 304 302 301 300 299 298 298 298 297 297 297 297 297 297 297 297 297 297 297 297 297 297 298 299 300 301
322 322 322 320 319 320 320 320 320 320 321 321 319 318 318 318 317 316 316 316 316 315 314 314 314 314 315 316 316 315 315 316 316 315 313 312 312 310 308 306 306 306 306 304 303 302 301 300 300 299 297 298 299 299 297 297 297 297 297 297 297 297 297 298 298 298 298 298 298 299 299 300 301 302
321 322 322 321 319 319 320 320 320 320 320 318 317 317 318 318 317 317 317 316 316 316 316 315 315 314 315 315 315 314 313 313 313 311 308 306 306 305 303 302 302 303 303 301 299 299 298 297 297 297 296 297 299 299 298 297 297 298 297 298 298 298 298 298 298 298 299 299 299 300 300 301 302 303
321 321 322 321 320 320 320 320 320 319 317 316 316 317 317 317 317 317 317 317 317 316 315 314 313 312 312 311 311 310 309 308 307 306 304 302 302 301 300 300 299 298 298 298 297 297 297 297 297 297 297 297 298 298 297 297 299 299 299 299 299 298 298 298 299 299 299 300 300 301 301 302 303 303
321 321 320 319 319 319 318 317 316 316 316 316 317 317 317 317 317 316 316 315 313 311 310 309 308 308 307 307 306 305 304 303 302 301 300 299 299 298 298 298 297 297 297 297 297 297 297 297 297 297 297 297 297 297 297 299 300 300 300 300 300 299 299 299 300 300 300 300 301 301 302 302 302 302
319 319 318 317 317 316 316 316 316 316 315 315 315 314 314 314 313 312 310 309 308 306 306 305 305 304 303 303 302 301 300 299 298 298 298 297 297 297 297 297 297 297 297 297 297 297 297 297 297 297 297 297 297 297 297 298 299 299 300 300 299 299 299 299 299 300 300 300 300 300 301 300 300 300
317 316 316 315 315 315 315 314 313 311 309 308 308 308 308 307 306 305 305 305 304 303 303 302 302 301 300 299 299 298 298 297 297 297 297 297 297 297 297 297 297 297 297 297 297 297 297 297 297 297 297 297 297 297 297 297 297 298 299 299 299 299 299 299 299 299 299 299 300 299 299 299 299 299
312 312 311 310 310 311 310 309 307 306 305 305 305 305 304 304 303 303 302 302 302 301 300 300 299 299 298 297 297 297 297 297 297 297 297 297 297 297 297 297 297 297 297 297 297 297 297 297 297 297 297 297 297 297 298 298 298 299 299 299 299 299 299 299 299 299 299 299 299 298 298 298 298 298
307 307 307 305 305 305 305 305 304 304 303 303 303 302 302 302 302 301 301 300 300 299 298 298 297 297 297 296 296 296 296 297 297 297 297 297 297 297 297 297 297 297 297 297 297 297 297 297 297 297 297 297 297 298 298 299 299 299 299 298 298 299 299 299 298 298 298 298 298 298 297 298 298 298
303 303 303 303 303 302 302 302 302 302 302 301 301 301 301 300 300 299 298 298 298 297 297 296 296 296 296 296 297 297 297 297 297 297 297 297 297 297 297 296 296 296 297 297 297 297 297 297 297 297 296 296 297 298 298 298 299 298 298 298 298 298 298 298 298 298 298 298 298 298 298 298 298 299
301 301 301 301 301 301 301 301 301 301 301 300 300 300 300 300 300 299 297 296 296 296 296 296 296 297 297 297 297 297 297 297 297 296 296 296 296 296 296 296 296 296 296 296 296 296 296 296 296 296 296 296 297 297 297 298 298 297 297 297 297 298 298 298 298 298 297 297 298 298 298 298 298 298
301 301 301 301 301 301 301 301 300 300 300 299 299 299 299 299 298 298 297 296 296 296 296 297 297 297 297 297 297 296 296 296 296 296 296 296 296 296 296 296 296 296 295 296 296 296 296 296 295 296 295 295 295 296 296 297 297 297 297 297 297 297 297 297 297 297 297 297 297 297 297 298 298 297
301 301 301 301 301 300 300 300 300 299 299 299 298 298 297 297 297 297 296 296 296 297 297 297 297 297 296 296 296 296 296 296 296 295 295 295 295 295 295 295 295 295 295 295 295 295 295 295 295 296 296 295 295 295 295 296 296 296 296 296 296 297 297 297 297 297 297 297 297 297 297 297 297 296
299 299 299 299 299 299 299 299 298 298 298 298 297 297 297 296 296 296 296 296 297 297 297 297 296 296 296 296 295 295 295 295 295 295 295 295 295 295 295 295 295 295 295 295 295 294 294 294 294 295 295 295 295 296 295 295 295 296 296 296 296 296 296 296 296 296 296 297 297 297 297 297 297 297
298 297 297 297 297 297 297 297 297 297 297 296 296 296 296 296 296 296 296 297 297 297 297 296 296 295 295 295 295 294 294 294 294 294 294 294 294 294 294 294 294 294 294 294 294 294 294 294 293 293 294 294 295 296 295 294 294 295 295 295 295 295 296 296 296 296 296 296 296 296 296 296 296 297
298 297 297 297 297 296 296 296 296 296 296 296 296 296 296 296 296 296 296 296 296 296 296 295 295 295 294 294 294 294 293 293 293 293 293 293 293 293 293 293 293 293 293 293 293 293 293 294 294 294 294 294 295 295 295 294 294 294 294 294 295 295 295 295 295 295 295 296 296 296 296 295 295 296
298 297 297 297 297 296 295 295 295 295 296 296 296 296 296 296 296 296 295 295 295 295 294 294 294 294 293 293 293 292 292 292 292 293 293 293 293 293 293 292 292 293 293 293 294 294 294 294 294 293 293 294 294 295 294 294 294 294 294 294 294 295 295 295 295 295 295 295 296 295 295 295 295 295
298 297 297 297 296 295 295 295 295 296 296 296 295 295 295 295 295 294 294 294 294 293 293 293 293 292 292 292 292 291 291 292 292 292 292 292 292 292 292 292 292 293 293 293 293 294 294 294 294 293 293 293 294 294 294 294 293 293 293 294 294 294 295 295 295 295 295 295 295 295 294 294 295 295
297 297 297 296 295 295 295 295 295 296 295 295 295 294 294 294 293 293 293 292 292 292 292 291 291 291 291 291 291 291 291 291 291 291 291 291 292 292 292 292 292 292 292 291 292 292 293 293 293 293 293 293 293 294 294 293 293 293 294 294 294 294 294 294 294 294 294 294 294 294 294 294 294 294
297 297 297 296 295 295 295 295 295 295 294 294 294 293 293 293 292 292 292 291 291 291 290 290 290 290 290 290 290 290 290 290 291 291 291 291 292 292 292 292 292 292 292 291 291 291 292 292 293 293 294 293 293 294 294 294 294 294 294 294 294 294 293 294 294 294 294 294 294 294 294 294 294 294
297 296 296 295 295 294 294 294 294 293 293 293 292 292 292 291 291 291 291 290 290 290 290 290 290 290 290 290 290 290 290 290 290 291 291 291 291 292 292 291 291 291 291 291 291 291 292 293 293 294 294 294 294 294 294 294 294 294 293 293 293 293 293 294 294 293 293 293 293 293 293 294 293 293
296 295 295 294 294 293 293 293 293 292 292 292 291 291 291 290 290 290 290 289 289 289 289 289 289 289 289 289 289 289 289 289 290 290 290 291 291 291 291 291 291 291 291 291 292 293 293 293 294 294 294 294 294 294 294 294 294 294 294 293 293 293 293 293 293 293 293 293 293 293 293 293 293 293
294 294 293 293 292 292 292 291 291 291 291 291 291 290 290 290 290 290 290 289 289 289 289 289 289 289 289 289 289 289 289 289 289 289 289 290 290 290 290 290 290 291 291 291 292 293 293 293 294 294 294 294 294 294 295 294 294 294 294 294 294 294 294 294 293 293 293 293 293 293 293 293 293 293
293 292 292 291 290 291 291 291 291 291 291 291 290 290 290 290 290 290 290 290 290 290 289 289 289 289 289 289 289 289 289 289 289 289 289 289 289 289 289 290 290 291 291 291 292 293 293 293 294 294 294 294 294 294 294 294 294 294 294 294 294 294 294 294 294 294 294 294 293 293 293 293 293 293
Wind_Speed
15 17 19 20 20 19 19 18 18 16 13 12 13 15 18 18 17 16 16 17 18 17 18 17 15 15 15 16 16 14 13 12 12 12 11 10 9 9 9 9 9 9 8 7 6 6 6 6 7 8 9 9 9 9 9 8 7 7 6 5 4 4 5 6 7 8 9 10 10 11 12 13 14 14
16 17 19 20 19 20 20 18 17 16 13 13 14 16 17 17 17 16 15 15 16 18 19 18 16 16 16 16 16 15 13 13 13 13 12 11 10 10 10 9 9 9 7 6 5 5 6 7 8 9 9 9 8 8 7 7 6 5 4 3 2 3 4 5 6 7 8 8 9 10 11 12 13 13
16 17 19 19 18 19 20 18 18 16 14 13 15 16 17 16 17 17 14 11 11 15 18 19 17 16 16 16 16 15 14 13 14 14 13 12 11 11 11 10 9 9 8 7 6 6 7 8 8 9 9 8 8 7 6 6 5 4 2 0 1 2 3 4 5 6 6 7 8 8 10 11 12 13
16 18 19 18 17 18 19 19 18 16 14 15 16 16 16 16 16 16 15 11 8 9 15 18 18 17 16 15 16 15 14 14 14 14 14 13 13 12 11 11 10 9 8 8 7 7 8 9 9 9 8 8 8 7 6 5 4 3 2 2 3 4 5 5 6 7 8 9 10 11 11 12 13 14
17 17 18 18 17 17 20 21 18 16 15 16 17 16 16 16 16 17 17 14 9 7 12 18 18 18 17 15 16 16 14 14 14 14 14 14 13 12 12 11 11 10 10 9 8 8 8 9 10 10 9 9 8 8 7 6 5 4 4 5 6 7 8 8 9 10 11 12 13 13 14 14 15 16
17 17 18 18 17 18 20 21 19 17 17 17 17 18 18 18 17 17 17 16 12 8 11 18 19 19 18 16 16 16 14 14 14 14 14 13 13 12 12 11 11 10 10 10 10 9 9 9 10 10 10 10 10 9 9 9 8 8 8 8 9 10 11 12 13 13 14 15 16 16 17 17 17 18
17 18 18 17 18 18 20 22 21 19 18 18 18 18 19 19 18 18 18 17 15 11 11 17 19 19 18 17 16 16 14 14 14 14 15 14 12 12 11 11 11 11 11 11 11 11 11 10 10 11 12 12 12 12 12 12 12 12 12 12 13 13 14 15 16 17 17 18 19 20 20 21 21 22
18 19 19 18 18 19 21 23 23 22 20 19 19 19 19 20 20 19 18 17 16 14 12 15 18 18 17 17 17 16 15 14 14 14 15 14 13 13 12 11 11 11 11 11 11 11 12 12 12 13 13 14 14 14 14 15 15 15 15 16 16 16 17 17 18 19 20 21 22 23 24 25 26 26
18 18 18 18 18 19 21 22 24 25 23 20 20 20 20 21 21 20 20 19 18 17 14 14 17 18 17 17 17 17 16 15 14 14 15 15 15 15 14 13 12 11 11 12 12 12 12 13 13 14 15 15 16 17 17 18 18 18 18 19 19 19 20 21 22 23 24 25 26 28 28 29 30 30
17 17 18 18 18 19 20 22 24 25 25 23 21 21 22 22 22 22 21 21 20 19 17 16 16 18 18 18 18 18 17 16 15 14 14 15 16 16 15 14 13 12 12 12 12 12 12 12 13 14 15 15 16 17 18 20 20 21 22 22 23 24 25 26 27 27 28 29 30 31 31 32 32 32
17 16 17 18 19 19 20 22 23 24 26 26 24 22 22 22 23 23 22 22 22 20 19 18 17 18 18 18 19 19 19 18 17 16 15 14 14 15 14 14 14 13 13 12 11 11 11 12 12 13 14 15 15 16 18 19 21 22 23 24 25 26 28 29 29 30 31 31 32 32 32 32 32 32
17 16 17 18 19 19 19 21 22 22 24 25 25 23 22 22 24 24 24 25 24 22 20 20 19 19 18 18 18 18 20 21 20 19 17 14 13 13 13 14 14 14 14 13 12 12 12 13 14 14 15 16 17 17 19 20 22 23 23 25 26 27 28 29 30 30 31 31 32 32 32 31 31 32
17 17 17 18 19 19 19 20 21 21 22 23 24 24 23 23 23 25 28 26 22 22 21 21 21 21 20 19 17 17 19 21 21 19 16 15 14 14 13 13 14 14 15 15 15 15 14 15 16 17 17 19 19 19 21 22 23 23 24 24 25 26 27 28 28 29 29 30 30 31 31 32 32 33
16 17 17 18 19 18 19 19 20 20 21 22 24 24 23 23 22 25 28 24 20 23 24 22 22 22 21 19 16 15 18 19 19 18 17 17 17 15 14 14 14 14 15 16 16 17 16 16 18 18 19 20 20 20 22 22 22 23 24 24 25 26 27 28 28 29 30 31 32 33 33 34 35 36
16 17 17 17 18 18 18 19 19 20 20 21 22 22 23 23 23 24 25 22 22 25 26 24 23 22 21 18 15 15 17 17 16 17 18 19 19 18 17 17 16 16 16 17 17 18 19 18 19 20 20 21 21 21 22 23 23 24 25 26 27 28 29 30 31 33 34 35 35 36 36 37 37 37
15 16 16 16 17 18 18 18 19 20 21 21 22 22 22 23 24 24 24 23 24 26 27 28 25 22 21 18 15 16 18 17 16 16 17 19 20 20 19 19 19 18 17 18 19 20 21 20 20 21 21 21 21 22 22 23 24 25 26 28 30 31 32 33 34 35 36 36 36 36 36 36 36 36
15 15 15 15 16 17 17 18 19 20 20 21 22 22 23 23 24 24 25 25 25 26 27 28 28 24 22 20 18 17 18 17 17 17 17 18 19 20 20 20 22 21 19 20 20 20 21 21 19 19 21 21 22 23 23 25 26 28 29 31 32 33 34 34 35 35 35 35 35 35 35 34 34 34
14 14 14 14 14 15 16 17 18 19 19 20 21 22 22 23 23 24 26 26 27 27 26 29 30 27 24 22 21 20 19 19 18 18 18 18 18 19 21 21 22 22 20 20 18 15 17 18 17 18 22 24 24 25 26 27 28 29 30 31 32 32 32 33 33 33 33 33 33 33 33 33 33 32
14 14 14 14 14 14 14 15 16 17 18 19 21 22 22 22 22 24 25 25 26 27 26 29 31 28 24 23 22 22 21 20 19 19 18 19 19 19 20 19 19 18 16 15 14 13 15 18 20 22 25 26 26 27 27 27 28 29 30 30 30 29 30 30 30 30 31 31 31 31 32 32 32 32
16 15 14 13 13 13 12 13 14 16 18 19 19 20 21 20 20 22 23 24 24 25 24 25 27 25 23 22 21 21 20 19 18 18 17 18 17 16 13 12 13 14 12 13 15 17 18 21 23 24 25 26 26 26 26 27 28 28 27 27 26 27 28 28 29 30 30 30 30 29 29 29 29 29
17 16 15 14 13 12 11 11 11 13 16 16 14 15 15 15 15 15 16 17 18 19 20 20 21 21 20 18 17 17 16 15 14 14 13 13 12 11 9 9 12 15 14 14 17 18 19 21 22 23 24 25 25 24 24 24 24 23 23 24 25 26 27 28 28 28 28 28 27 27 26 25 25 25
19 18 17 16 14 13 12 11 10 11 12 12 10 10 11 10 10 10 10 10 11 13 13 11 11 11 10 11 11 9 8 8 9 10 10 9 9 10 10 11 13 15 15 15 15 16 18 19 19 21 22 23 23 22 21 21 21 21 23 24 25 25 26 26 26 26 25 25 24 24 23 23 23 24
21 21 20 18 17 15 13 12 11 11 10 10 10 10 9 9 9 9 9 8 10 11 10 7 6 6 6 7 8 5 5 6 9 10 9 8 9 10 9 10 10 10 13 15 14 13 15 16 17 19 20 19 19 20 20 20 20 21 22 23 24 24 23 23 23 22 22 22 22 22 22 22 22 24
21 23 22 21 19 17 16 15 14 13 12 11 11 11 9 9 9 10 10 10 10 10 8 7 7 7 7 8 8 6 6 8 9 10 8 6 8 9 9 10 9 9 11 14 13 13 14 15 15 17 17 16 15 17 20 20 19 20 21 21 22 23 22 21 21 21 21 21 21 21 21 21 22 24
21 23 24 23 21 20 19 18 17 16 16 15 13 11 10 9 9 10 11 11 11 9 8 7 7 7 7 7 6 6 6 7 8 9 9 8 8 8 9 9 9 10 12 13 11 12 14 14 14 15 16 16 16 17 20 20 16 16 18 18 18 21 22 21 21 21 21 21 21 20 21 21 22 22
20 22 23 22 22 21 21 20 19 18 17 16 14 12 11 10 10 12 13 12 11 10 8 7 7 6 6 6 6 6 6 7 7 7 7 7 7 7 7 8 7 9 11 11 11 12 12 12 13 14 14 15 17 18 19 17 13 13 14 13 15 19 20 19 19 19 19 20 20 20 20 20 19 19
19 20 19 19 21 21 21 20 19 18 16 15 14 14 13 12 12 12 11 10 9 8 7 6 6 5 5 5 5 5 5 5 5 5 5 5 6 6 7 7 7 8 9 10 10 11 10 11 12 13 14 15 16 18 18 17 16 15 13 12 14 15 16 17 18 18 18 19 19 19 19 19 19 20
20 19 19 20 21 21 21 20 19 17 15 15 15 14 13 12 10 8 7 7 7 7 7 7 6 6 6 5 4 4 3 3 3 4 4 4 5 5 6 6 7 7 8 9 9 10 10 10 11 13 14 15 16 16 16 16 17 15 12 12 13 13 13 15 17 18 19 19 20 21 22 22 22 23
20 19 19 19 18 18 17 17 16 16 15 14 14 13 12 10 8 6 5 6 6 7 7 7 7 6 6 5 5 4 4 3 2 2 2 3 4 5 6 6 7 7 7 8 9 9 10 10 11 12 13 14 14 13 11 11 12 12 11 12 13 12 12 13 15 16 17 16 17 20 23 23 23 23
17 17 17 16 16 15 14 13 14 15 15 14 13 12 10 8 7 5 4 4 5 6 6 6 6 6 6 5 4 3 2 0 0 1 1 2 3 4 5 6 6 7 7 7 8 9 9 10 10 11 12 12 11 9 8 8 9 10 10 11 12 12 12 11 12 13 13 14 16 19 21 20 19 18
17 17 17 16 16 16 16 15 15 15 14 13 12 12 11 9 6 4 2 2 4 5 5 6 6 5 5 4 3 2 2 1 1 1 1 1 1 2 3 4 4 5 6 6 7 9 10 10 10 11 11 9 7 6 7 7 8 9 9 9 10 11 11 11 11 12 15 17 18 17 17 16 14 13
20 20 20 20 19 19 19 19 18 17 15 12 10 9 10 9 6 4 3 2 3 5 5 5 5 5 4 4 4 3 2 2 2 2 3 2 2 3 3 2 2 2 4 5 7 9 10 10 10 10 10 8 7 6 6 5 6 8 8 9 9 10 10 11 12 13 16 17 15 12 11 11 10 10
15 16 17 17 17 16 16 16 16 15 14 12 10 8 7 7 6 4 3 3 3 5 5 5 5 5 5 4 4 4 3 3 3 4 4 4 4 4 4 3 3 4 4 4 4 5 6 8 8 7 7 7 7 7 6 5 6 7 8 9 9 10 10 11 13 14 16 17 15 13 11 9 8 8
11 11 11 12 12 12 11 12 11 11 10 9 9 8 8 7 6 5 4 3 3 4 5 5 5 5 5 4 4 4 4 5 5 5 5 5 6 5 5 6 6 6 6 5 4 3 3 4 4 4 5 6 6 7 7 7 6 7 8 9 9 9 9 10 12 14 16 18 19 19 17 15 13 11
11 11 11 11 10 9 9 9 8 8 7 6 6 7 7 7 6 5 4 3 3 4 4 4 5 5 5 5 5 5 6 6 7 7 7 7 7 7 7 7 7 7 7 7 7 6 5 5 5 4 4 5 5 6 9 9 7 7 8 9 8 8 8 8 9 12 15 17 17 17 17 17 16 13
14 13 12 11 10 9 9 8 7 6 6 5 5 5 5 5 5 4 3 3 3 3 4 4 4 5 5 5 6 7 7 8 8 8 8 8 9 8 8 8 7 7 7 8 8 9 9 9 8 7 7 6 4 5 9 11 10 9 8 8 7 7 7 7 8 12 16 17 15 13 11 12 13 13
13 12 11 10 9 9 8 7 7 6 4 3 4 4 4 5 5 5 5 5 5 5 6 6 6 6 6 7 7 8 8 9 9 9 9 10 10 9 9 8 7 7 8 8 8 9 8 8 9 9 8 7 7 7 8 9 11 11 9 7 7 8 9 9 10 13 16 16 14 10 8 9 10 10
11 11 9 8 7 7 6 6 5 4 3 4 6 6 7 7 7 8 8 8 7 7 8 8 7 8 8 8 8 9 9 10 10 11 11 11 11 11 10 10 9 8 9 8 7 7 6 6 8 11 10 8 8 8 8 8 9 10 9 8 7 9 11 10 10 12 14 14 12 10 9 10 10 10
8 9 8 7 5 4 4 3 2 3 6 7 8 8 9 9 10 10 9 9 8 8 8 9 9 9 9 9 10 10 10 11 11 12 12 13 13 12 12 11 10 10 11 10 8 7 6 6 8 11 12 10 7 8 8 7 7 8 9 10 10 10 10 10 8 8 10 9 8 9 10 10 11 10
6 7 7 6 3 2 2 3 5 7 9 9 10 10 10 10 10 10 10 10 9 9 9 9 10 10 10 10 11 11 12 12 12 12 12 12 13 12 11 11 11 11 12 12 11 10 10 9 9 10 11 9 7 7 8 7 6 6 7 9 9 9 10 10 8 7 7 6 6 7 8 8 8 8
5 6 6 5 2 3 5 7 9 10 11 11 11 11 11 11 10 10 10 10 9 9 10 11 11 11 11 11 11 12 12 12 12 12 12 12 12 11 11 11 11 11 11 13 14 14 12 10 9 9 9 7 7 8 7 6 5 5 5 6 8 9 9 9 7 6 5 5 5 6 6 6 7 7
4 5 5 3 2 6 9 11 12 12 12 12 12 11 11 11 10 10 10 10 10 10 11 12 12 11 11 11 11 11 12 12 11 11 11 11 11 11 10 11 11 11 12 13 15 14 12 10 10 10 8 6 5 5 5 5 5 6 5 6 7 9 9 8 6 6 6 6 7 6 6 6 7 8
3 4 3 1 6 10 12 13 13 13 12 12 12 11 11 10 10 11 11 10 11 11 11 12 12 11 12 11 11 11 12 11 10 10 9 9 9 9 10 10 11 11 12 12 12 11 10 10 11 9 6 4 3 2 3 5 6 6 6 6 5 5 7 7 6 6 7 7 8 8 8 7 7 7
2 3 1 6 11 13 13 13 13 12 12 11 11 11 10 10 11 11 11 11 11 11 11 11 11 11 11 11 11 11 11 11 11 10 9 9 9 9 9 9 10 10 10 10 10 10 10 9 9 8 7 6 6 6 6 6 5 4 5 6 5 4 4 5 6 6 6 5 6 7 7 7 8 8
1 1 5 11 14 14 13 12 11 11 10 10 10 10 10 10 9 10 10 9 9 9 9 9 9 9 9 9 9 9 10 10 11 11 10 10 10 10 9 9 9 9 9 9 9 10 10 9 8 8 7 7 8 8 8 8 7 5 5 5 5 4 4 4 4 5 4 4 5 7 7 7 9 9
Wind_Direction
235 229 223 222 221 222 223 221 218 214 212 216 208 206 213 204 187 186 195 204 206 206 204 201 204 204 197 194 192 188 188 185 180 178 179 181 182 184 187 184 181 179 175 172 165 153 151 155 156 153 149 145 141 138 135 130 126 122 117 106 87 67 54 42 37 34 32 31 27 24 21 17 13 11
234 230 223 222 221 221 220 218 218 214 210 215 208 203 212 211 202 200 201 207 211 212 210 204 204 205 198 194 193 190 190 188 183 181 181 183 184 184 187 189 189 186 180 177 173 166 164 168 168 163 159 156 155 151 147 142 137 132 124 101 63 36 26 19 15 15 15 15 12 9 6 3 2 0
234 229 224 222 220 218 218 216 215 215 212 213 207 203 210 214 214 215 212 212 216 218 216 210 205 203 198 195 194 192 192 191 187 185 184 185 185 185 187 191 195 194 190 189 188 183 178 179 179 176 173 171 170 168 165 160 156 153 152 135 350 350 350 347 346 345 341 339 337 337 337 337 339 342
233 230 226 225 222 216 215 213 213 215 212 208 204 204 209 213 213 217 219 218 219 224 219 211 205 200 196 195 194 193 195 193 191 190 188 188 187 188 190 192 198 201 202 201 201 198 193 192 192 191 190 189 189 191 192 190 190 193 216 259 285 298 305 310 313 314 314 315 316 316 318 318 320 322
233 230 227 227 224 217 213 212 211 212 208 204 203 205 208 211 210 212 219 220 219 228 212 203 202 200 198 199 197 194 195 195 195 194 193 192 189 190 194 197 201 206 209 211 212 213 210 207 206 206 208 209 210 214 218 223 228 234 249 263 274 283 290 296 300 303 306 308 310 311 313 313 313 313
233 231 228 226 224 219 215 211 208 208 206 203 205 208 208 210 208 208 216 218 217 220 202 195 198 198 198 201 198 196 196 195 197 197 197 197 193 194 199 203 207 211 215 218 220 223 224 223 221 221 224 226 228 231 236 241 246 251 257 264 272 279 285 290 294 297 300 302 304 305 307 308 308 308
235 233 229 226 224 219 215 212 208 207 208 207 207 211 210 208 206 206 212 216 216 218 204 196 197 197 197 198 194 194 197 199 201 202 203 202 200 200 204 208 213 218 221 223 225 228 231 232 233 233 234 237 239 242 245 249 252 256 260 264 270 275 281 286 289 293 295 298 300 301 303 304 304 304
238 235 231 228 227 222 216 213 211 209 210 211 210 213 213 210 210 209 209 213 216 216 210 202 201 199 198 196 192 192 196 201 206 208 210 209 207 208 210 214 218 222 226 229 230 232 234 236 238 240 241 243 245 248 250 253 256 259 262 265 269 274 279 283 287 290 292 295 297 298 299 300 300 300
237 236 234 232 230 226 221 218 216 213 213 214 214 215 215 214 215 212 208 211 214 214 213 209 205 204 201 197 194 194 197 202 206 211 215 215 215 213 214 219 221 223 227 229 230 234 237 240 243 246 248 250 253 255 256 258 260 262 266 269 272 276 280 283 286 288 290 292 293 294 295 295 295 295
236 235 234 235 232 229 227 225 223 220 216 216 218 217 216 216 217 214 211 210 211 213 215 214 209 208 207 204 201 199 201 206 208 213 217 219 220 218 218 222 223 224 227 228 230 234 239 244 247 250 254 256 259 261 263 265 268 270 273 276 278 280 282 283 284 286 287 288 289 290 291 291 290 290
235 233 230 232 232 230 230 231 229 226 221 218 219 220 218 218 219 219 216 213 211 214 216 216 214 213 211 210 211 211 212 214 215 217 220 221 222 220 220 223 224 222 224 228 232 238 244 251 255 259 263 265 268 270 272 274 275 276 278 279 280 280 280 281 282 283 284 285 286 287 287 287 287 287
232 231 227 229 231 231 231 231 230 228 224 220 220 221 220 221 223 223 222 218 215 215 219 220 219 219 216 215 218 220 219 220 221 221 220 220 223 222 221 224 226 225 228 233 241 248 253 259 265 268 270 270 272 274 274 274 275 277 278 278 278 278 279 280 281 283 284 285 285 286 285 285 286 286
230 227 225 227 230 229 228 227 226 225 223 221 221 221 222 225 227 228 230 227 219 217 223 224 221 223 224 223 226 227 222 221 224 224 223 223 226 226 224 224 225 228 235 241 248 254 257 261 266 267 268 270 272 272 272 272 273 274 275 276 278 280 281 282 283 284 284 284 284 284 284 284 284 284
228 226 225 227 226 223 223 223 221 220 220 221 223 224 226 230 231 232 235 233 222 220 225 225 222 225 229 230 233 232 223 221 224 225 224 224 226 228 230 231 231 233 240 247 251 255 258 259 263 266 268 271 274 274 274 274 274 274 276 278 280 282 283 283 284 285 285 285 285 285 285 285 284 284
229 226 226 226 222 219 221 222 220 219 221 223 225 227 229 231 233 236 239 236 227 224 224 225 225 226 229 231 236 234 222 217 221 223 223 225 228 231 234 238 240 239 243 250 253 257 258 258 262 266 269 273 275 275 275 275 276 278 279 281 283 283 284 284 285 286 286 287 287 287 287 287 286 285
230 225 223 222 221 220 222 225 224 223 224 225 227 228 230 232 233 235 237 236 232 228 225 225 225 226 230 233 235 232 222 216 219 222 223 227 231 235 237 242 246 246 246 250 254 258 261 261 265 269 271 273 275 276 277 278 280 282 283 284 285 285 286 286 287 287 288 288 289 289 289 289 288 288
229 224 221 220 222 223 224 225 225 225 227 228 230 231 233 235 236 237 238 237 234 231 228 227 226 227 232 237 237 232 225 221 223 225 227 230 232 237 241 245 249 251 251 252 254 260 263 263 265 269 271 274 275 277 279 282 284 285 286 286 286 287 288 288 288 288 288 289 289 289 289 289 290 290
226 222 218 219 222 224 225 226 226 227 228 228 231 234 236 239 238 238 238 238 237 234 228 225 227 229 231 236 240 237 230 227 227 229 233 234 235 239 243 247 250 252 253 253 252 255 262 266 269 273 275 277 279 280 282 284 285 286 287 287 287 288 288 287 287 287 287 288 288 288 289 289 289 290
219 215 215 219 221 223 224 226 227 226 227 229 232 234 235 236 235 236 238 237 239 241 231 220 221 226 230 235 240 238 233 228 228 230 232 233 235 238 241 244 248 249 250 255 257 259 267 276 280 280 280 281 282 283 285 286 286 287 288 289 288 288 287 287 287 287 288 289 290 290 291 290 290 290
215 211 214 216 215 215 217 223 227 228 230 234 237 235 232 232 233 237 239 237 239 245 241 228 225 229 232 233 234 233 230 227 227 227 228 229 230 229 230 237 247 253 260 269 274 277 279 281 282 282 282 282 284 286 288 288 288 290 291 291 291 291 291 292 292 293 294 294 295 295 295 294 293 291
211 208 210 209 207 208 210 215 223 228 232 235 238 234 230 232 235 235 236 236 238 241 240 232 226 225 224 222 221 221 220 218 219 217 217 221 221 220 230 255 267 273 275 273 274 278 280 280 281 283 284 287 290 292 293 293 295 296 296 296 296 297 297 298 299 299 300 300 301 301 300 299 297 296
209 207 207 205 204 204 206 210 216 224 227 227 228 229 226 228 231 223 219 225 225 218 211 204 199 195 194 198 200 198 198 206 214 214 215 225 238 243 250 261 269 275 276 271 270 273 276 281 286 289 292 296 298 300 302 304 306 305 301 300 300 300 301 302 303 304 305 305 305 304 304 303 302 301
210 207 205 204 203 201 201 206 211 214 215 217 222 226 225 224 222 213 209 210 207 201 194 189 188 181 183 198 202 195 203 225 241 248 245 246 259 267 264 257 256 260 267 274 278 279 283 290 295 298 304 308 307 307 309 310 309 306 303 303 304 305 306 308 309 309 309 308 308 308 307 306 305 303
212 208 205 203 201 198 197 202 206 204 201 204 212 218 220 221 219 213 209 207 205 207 209 211 213 203 200 214 224 223 224 233 252 269 274 259 256 264 265 263 262 258 268 282 290 290 294 300 302 305 310 311 307 307 309 311 310 307 308 310 311 312 315 316 317 316 314 312 310 308 305 303 301 301
213 209 205 201 198 196 196 198 200 199 196 198 205 212 214 216 216 211 206 201 198 201 203 203 204 198 196 209 223 230 234 238 246 260 269 266 261 263 266 272 276 274 279 291 298 297 301 305 306 308 310 310 309 310 313 318 317 312 313 316 316 317 318 318 318 315 312 310 307 303 301 299 300 302
210 208 204 196 191 191 192 192 192 193 194 195 198 201 202 202 204 204 199 193 188 189 192 195 199 201 202 211 222 231 240 247 249 254 263 270 274 278 279 280 279 278 287 298 300 301 306 308 308 311 312 314 317 318 321 325 322 315 319 322 322 322 319 316 314 310 307 306 305 303 302 304 307 311
208 206 201 192 185 185 186 187 187 187 188 188 188 189 190 191 194 194 189 183 178 181 189 195 199 204 210 217 226 234 242 252 260 266 270 273 276 279 280 282 284 286 294 302 305 308 312 311 311 314 317 321 323 324 324 323 319 318 323 325 326 325 320 316 315 313 311 311 311 311 311 312 316 320
196 194 189 184 182 182 182 183 184 181 179 178 176 174 172 171 170 173 175 175 176 183 192 194 192 196 199 202 208 215 221 228 236 249 263 271 279 283 288 294 299 302 306 311 313 315 315 316 319 322 325 327 329 328 325 322 322 324 327 327 329 326 319 319 321 319 316 314 312 314 316 317 318 320
178 178 174 172 173 175 175 174 170 163 158 157 155 152 150 148 146 150 166 178 182 188 194 191 185 184 182 180 183 188 195 207 223 255 282 296 303 305 309 312 314 316 319 319 318 319 323 328 330 331 331 330 331 332 329 326 328 329 327 326 328 327 323 325 325 321 317 315 314 317 319 318 316 317
151 154 155 153 151 151 151 151 150 145 138 134 131 127 125 126 130 145 166 185 192 193 190 182 174 169 166 167 171 170 164 157 33 360 342 334 329 326 329 330 327 326 327 326 325 326 328 330 330 331 331 332 333 336 336 331 329 327 324 324 330 333 332 330 328 326 326 325 323 322 319 316 314 314
122 125 128 129 128 127 128 130 131 129 125 124 127 129 129 126 117 105 120 174 183 175 165 157 155 153 151 145 136 120 104 98 104 93 80 54 3 353 351 342 333 333 334 333 329 328 328 330 331 331 333 337 341 340 339 334 328 328 330 333 339 341 337 333 335 335 334 331 327 320 316 315 315 317
117 118 120 123 122 122 123 122 121 122 121 121 123 129 136 140 130 93 68 96 133 129 122 123 122 119 117 111 106 108 109 108 102 88 83 82 71 63 55 41 23 8 354 343 336 334 334 335 335 335 338 343 345 341 342 341 332 333 340 344 348 348 342 343 347 347 346 346 341 328 320 320 323 329
134 133 134 134 134 134 133 130 129 131 131 128 121 116 117 122 120 108 95 98 95 86 84 86 86 88 92 97 100 102 99 92 85 79 73 67 62 61 55 45 36 32 23 7 350 341 334 331 332 337 341 342 341 343 349 348 340 344 350 352 355 358 359 4 7 7 8 12 13 6 355 347 348 356
141 137 136 135 135 138 138 135 134 132 129 126 120 112 104 102 107 117 123 113 90 75 73 74 76 83 88 90 92 91 89 87 82 74 67 60 54 49 40 32 25 19 17 18 15 10 357 347 348 343 336 336 336 341 350 353 348 351 355 359 4 9 11 15 17 16 19 22 22 22 20 14 9 9
103 101 102 101 102 102 100 101 103 103 103 105 104 104 106 110 116 123 123 109 93 86 82 78 77 80 82 83 84 82 78 75 71 65 60 53 46 39 31 28 23 14 13 15 13 12 14 19 23 13 347 341 330 325 337 347 350 351 353 1 12 15 9 8 10 11 14 16 16 18 21 19 16 16
79 76 74 74 73 72 70 71 73 75 79 88 99 111 121 127 132 135 131 123 117 111 105 99 95 94 90 86 84 79 74 70 65 60 56 50 45 41 35 32 29 27 28 25 15 11 12 15 17 14 4 2 358 341 339 343 347 351 353 355 4 9 4 0 359 359 3 6 8 10 14 16 18 22
66 63 61 62 63 61 63 66 66 65 75 103 124 138 146 148 150 148 137 130 126 121 118 114 109 105 97 90 87 83 79 76 71 67 65 62 59 59 58 55 49 39 35 30 20 17 18 16 14 14 12 11 11 6 355 348 347 350 354 358 4 4 1 357 351 351 356 360 2 7 14 14 14 20
56 53 49 50 55 56 61 67 66 73 115 142 146 148 148 144 139 131 123 119 117 113 112 110 106 103 98 93 91 87 82 79 76 74 74 73 72 73 73 70 63 49 41 36 26 21 22 19 16 16 17 17 10 1 358 353 345 343 351 6 8 360 358 357 352 355 4 6 4 11 25 26 23 27
48 46 39 40 51 61 66 79 106 137 147 144 140 139 138 132 124 117 113 111 109 106 105 103 100 99 97 94 91 87 82 81 80 78 77 76 75 77 78 75 71 63 56 49 42 34 26 19 17 17 17 18 12 358 354 353 340 335 349 4 5 0 3 7 5 6 13 15 9 13 21 21 19 25
41 36 27 28 49 95 131 150 156 153 148 141 135 131 125 118 114 111 109 108 105 103 101 100 98 98 98 95 91 86 83 81 79 79 79 77 76 77 77 74 71 65 58 50 41 33 25 18 17 17 14 11 9 7 8 8 359 348 351 1 7 10 12 14 19 23 22 20 19 19 19 19 20 22
27 22 16 18 46 137 153 154 150 146 141 135 128 122 117 113 112 112 110 108 105 102 101 100 100 100 98 93 87 83 81 79 77 77 77 76 74 73 72 69 63 56 50 41 29 21 18 17 16 14 13 14 18 19 21 22 14 4 358 4 17 24 22 18 21 28 27 24 26 25 25 32 39 40
6 4 5 13 103 147 148 146 142 138 133 128 122 119 117 116 114 113 110 108 106 105 103 100 99 97 92 87 83 81 78 77 77 76 74 74 73 70 66 63 55 47 40 32 21 17 20 24 22 18 17 20 21 21 29 34 27 20 17 18 24 29 29 24 21 25 35 45 50 50 48 47 48 48
356 342 346 70 140 147 145 141 138 133 127 124 121 120 119 118 115 112 110 109 108 105 102 99 96 92 89 85 80 76 74 73 72 72 71 69 66 62 57 51 44 39 35 29 23 24 30 33 31 30 31 28 18 17 33 36 32 26 24 23 22 24 26 27 28 31 41 54 58 58 57 53 47 42
321 322 10 138 144 146 143 139 136 133 129 128 127 126 124 122 117 113 111 110 108 105 101 98 96 93 91 87 80 76 73 70 65 63 60 53 46 44 42 38 36 37 40 39 37 36 37 35 36 41 46 43 42 48 48 38 27 17 15 19 23 24 24 26 26 25 29 37 40 42 44 41 33 25
284 5 132 144 147 147 146 144 140 138 136 134 133 133 132 129 124 120 117 114 110 107 103 101 98 96 94 91 85 80 75 68 61 56 54 47 40 37 38 38 39 41 46 50 51 48 42 38 38 40 42 43 46 51 51 42 27 9 358 8 24 33 28 16 6 1 1 3 8 15 21 23 17 11